Total_Precipitation_Accumulation
0.27 0.32 0.48 0.43 0.25 0.24 0.41 0.35 0.35 0.20 0.20 0.23 0.23 0.28 0.29 0.26 0.21 0.19 0.19 0.20 0.23 0.25 0.25 0.28 0.30 0.31 0.33 0.36 0.42 0.48 0.51 0.52 0.48 0.47 0.48 0.51 0.55 0.56 0.54 0.55 0.55 0.57 0.62 0.70
0.33 0.29 0.40 0.33 0.17 0.15 0.17 0.16 0.17 0.16 0.21 0.20 0.23 0.28 0.31 0.28 0.21 0.16 0.15 0.16 0.17 0.19 0.20 0.23 0.27 0.31 0.34 0.40 0.49 0.54 0.56 0.53 0.52 0.49 0.46 0.44 0.44 0.45 0.45 0.46 0.47 0.50 0.54 0.57
0.56 0.26 0.33 0.30 0.17 0.15 0.15 0.13 0.14 0.20 0.20 0.17 0.24 0.29 0.27 0.21 0.15 0.13 0.12 0.13 0.14 0.15 0.18 0.20 0.28 0.36 0.43 0.48 0.56 0.58 0.60 0.56 0.51 0.48 0.45 0.42 0.40 0.40 0.42 0.43 0.46 0.50 0.52 0.56
0.74 0.46 0.47 0.30 0.20 0.18 0.16 0.14 0.12 0.14 0.12 0.12 0.16 0.19 0.17 0.13 0.11 0.10 0.09 0.09 0.10 0.11 0.13 0.15 0.21 0.30 0.39 0.47 0.58 0.61 0.61 0.60 0.59 0.59 0.59 0.61 0.61 0.61 0.61 0.59 0.60 0.65 0.70 0.72
0.64 0.48 0.26 0.13 0.12 0.16 0.20 0.18 0.13 0.11 0.09 0.07 0.09 0.15 0.20 0.16 0.13 0.11 0.08 0.07 0.07 0.09 0.10 0.10 0.12 0.20 0.29 0.43 0.59 0.71 0.77 0.76 0.76 0.81 0.86 0.91 0.94 0.93 0.92 0.91 0.90 0.87 0.83 0.78
0.58 0.47 0.22 0.12 0.05 0.07 0.12 0.21 0.09 0.07 0.07 0.06 0.08 0.16 0.22 0.20 0.17 0.14 0.12 0.10 0.09 0.09 0.11 0.13 0.15 0.22 0.36 0.53 0.69 0.79 0.84 0.87 0.90 0.96 1.03 1.01 1.00 0.98 0.91 0.86 0.85 0.83 0.80 0.75
0.51 0.46 0.21 0.11 0.04 0.04 0.19 0.26 0.10 0.08 0.08 0.08 0.10 0.14 0.13 0.14 0.17 0.17 0.17 0.19 0.20 0.21 0.23 0.26 0.28 0.37 0.52 0.63 0.72 0.76 0.77 0.79 0.82 0.81 0.83 0.81 0.79 0.76 0.72 0.67 0.62 0.58 0.54 0.49
0.36 0.49 0.35 0.15 0.10 0.18 0.25 0.15 0.11 0.09 0.09 0.10 0.10 0.09 0.07 0.07 0.10 0.14 0.18 0.24 0.31 0.37 0.39 0.40 0.42 0.49 0.57 0.58 0.58 0.57 0.55 0.53 0.52 0.48 0.45 0.46 0.47 0.47 0.47 0.44 0.41 0.38 0.36 0.34
0.36 0.41 0.30 0.19 0.21 0.23 0.18 0.15 0.12 0.11 0.10 0.09 0.09 0.08 0.07 0.06 0.06 0.07 0.09 0.11 0.16 0.22 0.26 0.27 0.27 0.30 0.33 0.29 0.26 0.24 0.21 0.21 0.21 0.19 0.19 0.21 0.23 0.24 0.26 0.28 0.28 0.29 0.28 0.28
0.30 0.29 0.21 0.19 0.20 0.20 0.17 0.16 0.14 0.13 0.12 0.11 0.11 0.10 0.09 0.07 0.06 0.06 0.06 0.07 0.07 0.08 0.09 0.10 0.10 0.11 0.12 0.10 0.08 0.08 0.09 0.09 0.11 0.13 0.15 0.17 0.19 0.20 0.21 0.22 0.23 0.25 0.26 0.26
0.26 0.22 0.18 0.16 0.16 0.16 0.15 0.12 0.11 0.11 0.10 0.11 0.12 0.13 0.11 0.10 0.09 0.08 0.08 0.08 0.08 0.08 0.08 0.08 0.08 0.08 0.08 0.08 0.08 0.09 0.09 0.10 0.11 0.13 0.15 0.16 0.18 0.20 0.23 0.22 0.24 0.28 0.29 0.29
0.30 0.20 0.20 0.17 0.12 0.11 0.10 0.10 0.10 0.11 0.12 0.12 0.13 0.14 0.12 0.11 0.10 0.10 0.10 0.10 0.09 0.10 0.10 0.12 0.12 0.14 0.14 0.14 0.13 0.13 0.14 0.14 0.16 0.17 0.18 0.18 0.19 0.20 0.22 0.24 0.26 0.28 0.29 0.31
0.21 0.16 0.15 0.13 0.09 0.08 0.09 0.09 0.10 0.10 0.10 0.10 0.11 0.11 0.11 0.12 0.12 0.11 0.11 0.13 0.14 0.15 0.15 0.15 0.15 0.16 0.17 0.18 0.18 0.19 0.20 0.21 0.23 0.23 0.23 0.23 0.23 0.24 0.24 0.25 0.28 0.29 0.30 0.32
0.12 0.12 0.14 0.12 0.11 0.09 0.08 0.09 0.09 0.09 0.09 0.09 0.09 0.09 0.09 0.10 0.10 0.12 0.15 0.16 0.16 0.16 0.16 0.16 0.16 0.17 0.17 0.18 0.20 0.21 0.22 0.26 0.29 0.28 0.30 0.31 0.31 0.32 0.32 0.33 0.32 0.30 0.32 0.37
0.10 0.12 0.15 0.15 0.13 0.11 0.11 0.11 0.11 0.11 0.11 0.10 0.10 0.10 0.10 0.10 0.10 0.12 0.13 0.14 0.14 0.15 0.14 0.14 0.14 0.15 0.17 0.19 0.20 0.21 0.22 0.25 0.28 0.30 0.33 0.35 0.36 0.37 0.38 0.37 0.34 0.31 0.30 0.34
0.14 0.12 0.12 0.13 0.15 0.16 0.15 0.14 0.13 0.13 0.12 0.11 0.12 0.12 0.12 0.11 0.11 0.11 0.11 0.11 0.12 0.13 0.14 0.15 0.16 0.16 0.17 0.20 0.22 0.23 0.23 0.29 0.31 0.30 0.32 0.35 0.37 0.38 0.38 0.37 0.36 0.34 0.32 0.32
0.24 0.22 0.21 0.21 0.20 0.20 0.20 0.19 0.17 0.17 0.16 0.15 0.14 0.13 0.11 0.11 0.10 0.11 0.11 0.12 0.13 0.14 0.15 0.17 0.19 0.18 0.19 0.20 0.23 0.25 0.26 0.30 0.35 0.33 0.31 0.34 0.38 0.40 0.40 0.39 0.38 0.35 0.32 0.36
0.29 0.31 0.31 0.33 0.32 0.29 0.26 0.24 0.21 0.19 0.19 0.18 0.16 0.14 0.14 0.14 0.14 0.15 0.16 0.16 0.16 0.16 0.16 0.18 0.19 0.19 0.19 0.22 0.26 0.28 0.29 0.30 0.33 0.34 0.36 0.40 0.43 0.44 0.44 0.44 0.43 0.42 0.39 0.42
0.27 0.28 0.28 0.30 0.32 0.32 0.30 0.27 0.26 0.25 0.23 0.21 0.19 0.19 0.18 0.18 0.18 0.19 0.19 0.18 0.17 0.17 0.17 0.17 0.20 0.20 0.20 0.24 0.31 0.32 0.34 0.35 0.36 0.37 0.40 0.45 0.48 0.44 0.45 0.46 0.47 0.47 0.47 0.47
0.26 0.25 0.25 0.27 0.29 0.30 0.29 0.28 0.28 0.27 0.26 0.25 0.23 0.21 0.20 0.20 0.20 0.20 0.19 0.18 0.19 0.21 0.20 0.20 0.20 0.19 0.21 0.24 0.31 0.33 0.35 0.37 0.40 0.40 0.42 0.44 0.45 0.44 0.43 0.44 0.46 0.47 0.47 0.47
0.28 0.26 0.25 0.25 0.28 0.29 0.29 0.29 0.29 0.30 0.29 0.27 0.26 0.25 0.24 0.23 0.23 0.23 0.22 0.20 0.18 0.18 0.18 0.19 0.19 0.20 0.24 0.30 0.33 0.32 0.34 0.38 0.39 0.41 0.42 0.43 0.43 0.42 0.42 0.43 0.45 0.45 0.46 0.45
0.28 0.28 0.27 0.27 0.29 0.31 0.31 0.30 0.29 0.29 0.28 0.27 0.27 0.26 0.25 0.24 0.22 0.20 0.19 0.20 0.19 0.21 0.21 0.18 0.19 0.25 0.33 0.37 0.33 0.31 0.34 0.38 0.40 0.42 0.43 0.43 0.43 0.43 0.42 0.43 0.44 0.43 0.44 0.45
0.29 0.29 0.28 0.27 0.26 0.26 0.26 0.26 0.26 0.26 0.28 0.28 0.28 0.27 0.25 0.23 0.22 0.22 0.21 0.18 0.18 0.21 0.22 0.21 0.26 0.34 0.38 0.37 0.34 0.36 0.39 0.41 0.41 0.42 0.43 0.43 0.45 0.46 0.46 0.45 0.44 0.44 0.45 0.45
0.22 0.22 0.23 0.21 0.19 0.18 0.19 0.21 0.21 0.21 0.22 0.22 0.22 0.21 0.20 0.19 0.17 0.16 0.17 0.18 0.20 0.24 0.23 0.24 0.30 0.33 0.34 0.33 0.35 0.39 0.41 0.41 0.42 0.42 0.42 0.42 0.42 0.43 0.43 0.42 0.41 0.39 0.40 0.41
0.18 0.16 0.15 0.14 0.13 0.13 0.13 0.13 0.13 0.14 0.15 0.16 0.15 0.15 0.16 0.17 0.18 0.17 0.15 0.15 0.17 0.21 0.21 0.22 0.25 0.28 0.29 0.30 0.34 0.37 0.38 0.39 0.42 0.45 0.44 0.42 0.41 0.41 0.39 0.39 0.40 0.39 0.38 0.37
0.15 0.14 0.13 0.12 0.12 0.11 0.11 0.10 0.10 0.09 0.10 0.12 0.13 0.13 0.15 0.17 0.17 0.17 0.17 0.16 0.17 0.20 0.21 0.21 0.22 0.25 0.27 0.29 0.31 0.33 0.33 0.34 0.35 0.36 0.37 0.38 0.38 0.38 0.36 0.35 0.35 0.36 0.35 0.35
0.10 0.09 0.09 0.08 0.08 0.08 0.08 0.08 0.08 0.08 0.08 0.10 0.12 0.13 0.14 0.16 0.17 0.17 0.16 0.17 0.18 0.19 0.19 0.19 0.21 0.23 0.25 0.27 0.28 0.28 0.28 0.28 0.30 0.31 0.32 0.34 0.34 0.33 0.32 0.33 0.33 0.33 0.34 0.34